| time (UTC) | temp F | wind direction | speed knots | gust knots | rain 1hr in | rain 24hr in | rain mn in | humidity % | barometer mb |
| 20260504110556 | 48 | 134 | 0.0 | 0.9 | 0.00 | 0.00 | 0.00 | 76 | 1013.3 |
| 20260504100557 | 47 | 0 | 0.0 | 0.9 | 0.00 | 0.00 | 0.00 | 77 | 1013.6 |
| 20260504081556 | 50 | 0 | 0.0 | 1.7 | 0.00 | 0.00 | 0.00 | 73 | 1014.2 |
| 20260504081057 | 50 | 0 | 0.0 | 1.7 | 0.00 | 0.00 | 0.00 | 73 | 1014.3 |
| 20260504080558 | 50 | 0 | 0.0 | 1.7 | 0.00 | 0.00 | 0.00 | 73 | 1014.5 |
| 20260504070111 | 51 | 0 | 0.0 | 0.9 | 0.00 | 0.00 | 0.00 | 70 | 1014.8 |
| 20260504050556 | 53 | 131 | 0.9 | 4.3 | 0.00 | 0.00 | 0.00 | 63 | 1015.5 |
| 20260504045557 | 53 | 0 | 0.0 | 5.2 | 0.00 | 0.00 | 0.00 | 63 | 1015.9 |
| 20260504045055 | 52 | 153 | 0.0 | 6.1 | 0.00 | 0.00 | 0.00 | 63 | 1015.9 |
| 20260504044557 | 51 | 204 | 0.0 | 6.1 | 0.00 | 0.00 | 0.00 | 68 | 1016.0 |
| 20260504044055 | 51 | 0 | 0.0 | 2.6 | 0.00 | 0.00 | 0.00 | 72 | 1015.9 |
| 20260504043555 | 51 | 0 | 0.0 | 0.9 | 0.00 | 0.00 | 0.00 | 71 | 1015.6 |
| 20260504043104 | 51 | 0 | 0.0 | 0.9 | 0.00 | 0.00 | 0.00 | 71 | 1015.6 |
| 20260504042555 | 51 | 0 | 0.0 | 2.6 | 0.00 | 0.00 | 0.00 | 71 | 1015.4 |
| 20260504042057 | 51 | 0 | 0.0 | 2.6 | 0.00 | 0.00 | 0.00 | 70 | 1015.4 |
| 20260504041555 | 51 | 0 | 0.0 | 1.7 | 0.00 | 0.00 | 0.00 | 71 | 1015.4 |
| 20260504041057 | 52 | 0 | 0.0 | 0.0 | 0.00 | 0.00 | 0.00 | 69 | 1015.4 |
| 20260504040557 | 51 | 0 | 0.0 | 0.0 | 0.00 | 0.00 | 0.00 | 70 | 1015.4 |
| 20260504040131 | 51 | 0 | 0.0 | 0.0 | 0.00 | 0.00 | 0.00 | 72 | 1015.6 |
| 20260504035557 | 50 | 0 | 0.0 | 0.0 | 0.00 | 0.00 | 0.00 | 73 | 1015.5 |
| 20260504035100 | 50 | 0 | 0.0 | 0.0 | 0.00 | 0.00 | 0.00 | 73 | 1015.7 |
| 20260504034602 | 51 | 0 | 0.0 | 0.0 | 0.00 | 0.00 | 0.00 | 71 | 1015.7 |
| 20260504034058 | 51 | 0 | 0.0 | 0.9 | 0.00 | 0.00 | 0.00 | 71 | 1015.6 |
| 20260504033558 | 51 | 0 | 0.0 | 0.9 | 0.00 | 0.00 | 0.00 | 70 | 1015.8 |
| 20260504033058 | 51 | 0 | 0.0 | 0.9 | 0.00 | 0.00 | 0.00 | 70 | 1015.7 |
| 20260504032557 | 51 | 0 | 0.0 | 0.0 | 0.00 | 0.00 | 0.00 | 69 | 1015.7 |
| 20260504032102 | 52 | 0 | 0.0 | 0.0 | 0.00 | 0.00 | 0.00 | 68 | 1015.8 |
| 20260504031606 | 52 | 0 | 0.0 | 0.0 | 0.00 | 0.00 | 0.00 | 67 | 1015.7 |
| 20260504031057 | 52 | 0 | 0.0 | 0.0 | 0.00 | 0.00 | 0.00 | 66 | 1015.7 |
| 20260504030557 | 52 | 0 | 0.0 | 0.0 | 0.00 | 0.00 | 0.00 | 67 | 1015.7 |
| 20260504030057 | 52 | 0 | 0.0 | 0.0 | 0.00 | 0.00 | 0.00 | 67 | 1015.7 |
| 20260504025557 | 52 | 0 | 0.0 | 0.0 | 0.00 | 0.00 | 0.00 | 66 | 1015.7 |
| 20260504025058 | 52 | 0 | 0.0 | 0.0 | 0.00 | 0.00 | 0.00 | 66 | 1015.7 |
| 20260504024603 | 52 | 0 | 0.0 | 0.0 | 0.00 | 0.00 | 0.00 | 66 | 1015.7 |
| 20260504024057 | 52 | 0 | 0.0 | 0.0 | 0.00 | 0.00 | 0.00 | 66 | 1015.7 |
| 20260504023557 | 52 | 0 | 0.0 | 0.0 | 0.00 | 0.00 | 0.00 | 66 | 1015.8 |
| 20260504023055 | 52 | 0 | 0.0 | 0.0 | 0.00 | 0.00 | 0.00 | 65 | 1015.8 |
| 20260504022557 | 52 | 0 | 0.0 | 0.0 | 0.00 | 0.00 | 0.00 | 65 | 1015.8 |
| 20260504022057 | 52 | 0 | 0.0 | 0.0 | 0.00 | 0.00 | 0.00 | 63 | 1015.7 |
| 20260504021557 | 53 | 0 | 0.0 | 0.0 | 0.00 | 0.00 | 0.00 | 62 | 1015.7 |
| 20260504021056 | 53 | 0 | 0.0 | 0.9 | 0.00 | 0.00 | 0.00 | 62 | 1015.6 |
| 20260504020600 | 53 | 0 | 0.0 | 0.9 | 0.00 | 0.00 | 0.00 | 63 | 1015.6 |
| 20260504020111 | 53 | 0 | 0.0 | 0.9 | 0.00 | 0.00 | 0.00 | 62 | 1015.4 |
| 20260504015559 | 54 | 244 | 0.0 | 0.0 | 0.00 | 0.00 | 0.00 | 61 | 1015.4 |
| 20260504015057 | 54 | 0 | 0.0 | 0.0 | 0.00 | 0.00 | 0.00 | 58 | 1015.2 |
| 20260504014556 | 54 | 0 | 0.0 | 0.0 | 0.00 | 0.00 | 0.00 | 58 | 1015.3 |
| 20260504014054 | 54 | 0 | 0.0 | 0.0 | 0.00 | 0.00 | 0.00 | 58 | 1015.3 |
| 20260504013557 | 55 | 0 | 0.0 | 0.0 | 0.00 | 0.00 | 0.00 | 57 | 1015.3 |
| 20260504013100 | 55 | 0 | 0.0 | 0.0 | 0.00 | 0.00 | 0.00 | 58 | 1015.2 |
| 20260504012557 | 55 | 0 | 0.0 | 0.0 | 0.00 | 0.00 | 0.00 | 53 | 1015.3 |
| 20260504012057 | 56 | 0 | 0.0 | 0.9 | 0.00 | 0.00 | 0.00 | 54 | 1015.2 |
| 20260504011556 | 56 | 0 | 0.0 | 0.9 | 0.00 | 0.00 | 0.00 | 50 | 1015.2 |
| 20260504011057 | 57 | 0 | 0.0 | 0.0 | 0.00 | 0.00 | 0.00 | 51 | 1015.2 |
| 20260504010556 | 57 | 0 | 0.0 | 0.0 | 0.00 | 0.00 | 0.00 | 49 | 1015.2 |
| 20260504010100 | 57 | 0 | 0.0 | 0.0 | 0.00 | 0.00 | 0.00 | 48 | 1015.5 |
| 20260504005557 | 57 | 0 | 0.0 | 0.0 | 0.00 | 0.00 | 0.00 | 48 | 1015.6 |
| 20260504005057 | 57 | 0 | 0.0 | 1.7 | 0.00 | 0.00 | 0.00 | 47 | 1015.5 |
| 20260504004557 | 58 | 0 | 0.0 | 1.7 | 0.00 | 0.00 | 0.00 | 47 | 1015.5 |
| 20260504004058 | 58 | 244 | 0.0 | 0.9 | 0.00 | 0.00 | 0.00 | 45 | 1015.6 |
| 20260504003557 | 58 | 0 | 0.0 | 2.6 | 0.00 | 0.00 | 0.00 | 47 | 1015.5 |
| 20260504003057 | 58 | 244 | 0.9 | 3.5 | 0.00 | 0.00 | 0.00 | 44 | 1015.5 |
| 20260504002557 | 58 | 0 | 0.0 | 3.5 | 0.00 | 0.00 | 0.00 | 44 | 1015.6 |
| 20260504002057 | 58 | 298 | 0.0 | 3.5 | 0.00 | 0.00 | 0.00 | 45 | 1015.5 |
| 20260504001559 | 59 | 236 | 0.9 | 5.2 | 0.00 | 0.00 | 0.00 | 44 | 1015.4 |
| 20260504001057 | 59 | 298 | 0.9 | 6.1 | 0.00 | 0.00 | 0.00 | 42 | 1015.5 |
| 20260504000557 | 59 | 265 | 1.7 | 6.1 | 0.00 | 0.00 | 0.00 | 46 | 1015.4 |
| 20260504000056 | 59 | 0 | 0.0 | 3.5 | 0.00 | 0.00 | 0.00 | 45 | 1015.3 |
| 20260503235558 | 59 | 200 | 0.0 | 0.9 | 0.00 | 0.00 | 0.00 | 48 | 1015.5 |
| 20260503235100 | 59 | 0 | 0.0 | 2.6 | 0.00 | 0.00 | 0.00 | 45 | 1015.5 |
| 20260503234624 | 59 | 200 | 0.0 | 2.6 | 0.00 | 0.00 | 0.00 | 43 | 1015.4 |
| 20260503234100 | 60 | 200 | 0.0 | 2.6 | 0.00 | 0.00 | 0.00 | 42 | 1015.4 |
| 20260503233557 | 60 | 0 | 0.0 | 2.6 | 0.00 | 0.00 | 0.00 | 43 | 1015.4 |
| 20260503233057 | 60 | 0 | 0.0 | 2.6 | 0.00 | 0.00 | 0.00 | 41 | 1015.3 |
| 20260503232557 | 60 | 0 | 0.0 | 4.3 | 0.00 | 0.00 | 0.00 | 40 | 1015.3 |
| 20260503232057 | 60 | 0 | 0.0 | 4.3 | 0.00 | 0.00 | 0.00 | 40 | 1015.5 |
| 20260503231555 | 60 | 261 | 0.0 | 3.5 | 0.00 | 0.00 | 0.00 | 40 | 1015.5 |
| 20260503231057 | 60 | 259 | 0.0 | 1.7 | 0.00 | 0.00 | 0.00 | 40 | 1015.6 |
| 20260503230600 | 60 | 0 | 0.0 | 1.7 | 0.00 | 0.00 | 0.00 | 41 | 1015.6 |
| 20260503230058 | 60 | 0 | 0.0 | 5.2 | 0.00 | 0.00 | 0.00 | 41 | 1015.6 |
| 20260503225557 | 60 | 0 | 0.0 | 5.2 | 0.00 | 0.00 | 0.00 | 42 | 1015.8 |
| 20260503225058 | 60 | 282 | 0.9 | 7.8 | 0.00 | 0.00 | 0.00 | 40 | 1016.0 |
| 20260503224554 | 61 | 240 | 1.7 | 7.8 | 0.00 | 0.00 | 0.00 | 40 | 1015.9 |
| 20260503224058 | 61 | 227 | 0.9 | 5.2 | 0.00 | 0.00 | 0.00 | 40 | 1016.0 |
| 20260503223557 | 61 | 0 | 0.0 | 5.2 | 0.00 | 0.00 | 0.00 | 40 | 1016.0 |
| 20260503223056 | 61 | 230 | 1.7 | 7.8 | 0.00 | 0.00 | 0.00 | 41 | 1016.1 |
| 20260503222558 | 61 | 270 | 0.9 | 7.8 | 0.00 | 0.00 | 0.00 | 39 | 1016.1 |
| 20260503222057 | 61 | 0 | 2.6 | 7.8 | 0.00 | 0.00 | 0.00 | 36 | 1016.1 |
| 20260503221601 | 62 | 233 | 0.9 | 7.0 | 0.00 | 0.00 | 0.00 | 36 | 1016.2 |
| 20260503221057 | 63 | 277 | 1.7 | 6.1 | 0.00 | 0.00 | 0.00 | 36 | 1016.2 |
| 20260503220558 | 63 | 0 | 1.7 | 6.1 | 0.00 | 0.00 | 0.00 | 37 | 1016.1 |
| 20260503220057 | 63 | 225 | 0.9 | 5.2 | 0.00 | 0.00 | 0.00 | 38 | 1016.1 |
| 20260503215557 | 63 | 129 | 0.9 | 4.3 | 0.00 | 0.00 | 0.00 | 37 | 1016.1 |
| 20260503215056 | 63 | 0 | 1.7 | 6.1 | 0.00 | 0.00 | 0.00 | 35 | 1016.0 |
| 20260503214600 | 63 | 159 | 1.7 | 9.6 | 0.00 | 0.00 | 0.00 | 38 | 1016.0 |
| 20260503214057 | 63 | 239 | 3.5 | 9.6 | 0.00 | 0.00 | 0.00 | 37 | 1016.1 |
| 20260503213557 | 63 | 259 | 0.9 | 3.5 | 0.00 | 0.00 | 0.00 | 35 | 1016.2 |
| 20260503213057 | 63 | 310 | 0.9 | 5.2 | 0.00 | 0.00 | 0.00 | 37 | 1016.1 |
| 20260503212557 | 63 | 257 | 1.7 | 7.0 | 0.00 | 0.00 | 0.00 | 38 | 1016.2 |
| 20260503212058 | 63 | 276 | 2.6 | 7.0 | 0.00 | 0.00 | 0.00 | 36 | 1016.1 |
| 20260503211600 | 63 | 295 | 3.5 | 7.8 | 0.00 | 0.00 | 0.00 | 37 | 1016.1 |
| 20260503211057 | 62 | 202 | 3.5 | 7.8 | 0.00 | 0.00 | 0.00 | 36 | 1016.1 |
| 20260503210557 | 63 | 221 | 3.5 | 7.0 | 0.00 | 0.00 | 0.00 | 36 | 1016.3 |
| 20260503210054 | 63 | 291 | 0.9 | 6.1 | 0.00 | 0.00 | 0.00 | 35 | 1016.2 |
| 20260503205559 | 63 | 296 | 2.6 | 10.4 | 0.00 | 0.00 | 0.00 | 36 | 1016.4 |
| 20260503205058 | 63 | 254 | 2.6 | 10.4 | 0.00 | 0.00 | 0.00 | 38 | 1016.3 |
| 20260503204557 | 63 | 295 | 0.9 | 7.0 | 0.00 | 0.00 | 0.00 | 38 | 1016.1 |
| 20260503204056 | 63 | 298 | 1.7 | 7.0 | 0.00 | 0.00 | 0.00 | 36 | 1016.3 |
| 20260503203556 | 63 | 96 | 1.7 | 8.7 | 0.00 | 0.00 | 0.00 | 36 | 1016.5 |
| 20260503203059 | 63 | 129 | 0.9 | 8.7 | 0.00 | 0.00 | 0.00 | 35 | 1016.5 |
| 20260503202556 | 63 | 240 | 0.9 | 10.4 | 0.00 | 0.00 | 0.00 | 37 | 1016.6 |
| 20260503202057 | 63 | 0 | 3.5 | 10.4 | 0.00 | 0.00 | 0.00 | 39 | 1016.8 |
| 20260503201555 | 63 | 297 | 2.6 | 8.7 | 0.00 | 0.00 | 0.00 | 38 | 1016.9 |
| 20260503201059 | 63 | 273 | 2.6 | 8.7 | 0.00 | 0.00 | 0.00 | 35 | 1017.0 |
| 20260503200557 | 63 | 288 | 4.3 | 8.7 | 0.00 | 0.00 | 0.00 | 39 | 1017.0 |
| 20260503200058 | 63 | 280 | 0.9 | 9.6 | 0.00 | 0.00 | 0.00 | 38 | 1017.2 |
| 20260503195600 | 63 | 166 | 1.7 | 9.6 | 0.00 | 0.00 | 0.00 | 35 | 1017.3 |
| 20260503195057 | 63 | 265 | 2.6 | 7.0 | 0.00 | 0.00 | 0.00 | 38 | 1017.5 |
| 20260503194600 | 63 | 319 | 2.6 | 7.0 | 0.00 | 0.00 | 0.00 | 36 | 1017.5 |
| 20260503194057 | 63 | 223 | 1.7 | 7.0 | 0.00 | 0.00 | 0.00 | 38 | 1017.8 |
| 20260503193557 | 63 | 157 | 1.7 | 6.1 | 0.00 | 0.00 | 0.00 | 35 | 1018.0 |
| 20260503193056 | 63 | 219 | 0.9 | 7.0 | 0.00 | 0.00 | 0.00 | 37 | 1018.0 |
| 20260503192556 | 63 | 281 | 2.6 | 7.0 | 0.00 | 0.00 | 0.00 | 38 | 1018.1 |
| 20260503192057 | 63 | 247 | 1.7 | 6.1 | 0.00 | 0.00 | 0.00 | 38 | 1018.1 |
| 20260503191555 | 62 | 282 | 1.7 | 9.6 | 0.00 | 0.00 | 0.00 | 40 | 1018.1 |
| 20260503191058 | 62 | 127 | 0.9 | 9.6 | 0.00 | 0.00 | 0.00 | 37 | 1018.2 |
| 20260503190559 | 62 | 326 | 0.9 | 7.0 | 0.00 | 0.00 | 0.00 | 38 | 1018.5 |
| 20260503190057 | 62 | 273 | 1.7 | 7.0 | 0.00 | 0.00 | 0.00 | 37 | 1018.6 |
| 20260503185639 | 62 | 175 | 1.7 | 6.1 | 0.00 | 0.00 | 0.00 | 39 | 1018.7 |
| 20260503185101 | 63 | 174 | 0.9 | 6.1 | 0.00 | 0.00 | 0.00 | 38 | 1018.9 |
| 20260503184559 | 62 | 227 | 1.7 | 6.1 | 0.00 | 0.00 | 0.00 | 42 | 1019.0 |
| 20260503184057 | 62 | 223 | 0.9 | 6.1 | 0.00 | 0.00 | 0.00 | 44 | 1018.9 |
| 20260503183558 | 61 | 269 | 2.6 | 6.1 | 0.00 | 0.00 | 0.00 | 40 | 1019.1 |
| 20260503183057 | 60 | 327 | 0.9 | 6.1 | 0.00 | 0.00 | 0.00 | 41 | 1019.1 |
| 20260503182556 | 59 | 263 | 0.9 | 7.8 | 0.00 | 0.00 | 0.00 | 39 | 1019.2 |
| 20260503182057 | 60 | 0 | 1.7 | 7.8 | 0.00 | 0.00 | 0.00 | 42 | 1019.3 |
| 20260503181557 | 59 | 278 | 0.9 | 7.8 | 0.00 | 0.00 | 0.00 | 42 | 1019.3 |
| 20260503181056 | 60 | 279 | 3.5 | 7.0 | 0.00 | 0.00 | 0.00 | 42 | 1019.5 |
| 20260503180555 | 60 | 281 | 1.7 | 7.0 | 0.00 | 0.00 | 0.00 | 41 | 1019.4 |
| 20260503180106 | 60 | 304 | 2.6 | 7.0 | 0.00 | 0.00 | 0.00 | 44 | 1019.5 |
| 20260503175556 | 59 | 262 | 2.6 | 7.0 | 0.00 | 0.00 | 0.00 | 40 | 1019.7 |
| 20260503175056 | 58 | 261 | 3.5 | 7.0 | 0.00 | 0.00 | 0.00 | 41 | 1019.8 |
| 20260503174559 | 57 | 267 | 2.6 | 7.0 | 0.00 | 0.00 | 0.00 | 44 | 1019.9 |
| 20260503174056 | 59 | 269 | 0.9 | 5.2 | 0.00 | 0.00 | 0.00 | 42 | 1019.9 |
| 20260503173557 | 59 | 265 | 1.7 | 6.1 | 0.00 | 0.00 | 0.00 | 43 | 1019.8 |
| 20260503173107 | 59 | 313 | 0.9 | 7.0 | 0.00 | 0.00 | 0.00 | 43 | 1020.0 |
| 20260503172558 | 59 | 0 | 1.7 | 7.0 | 0.00 | 0.00 | 0.00 | 43 | 1020.0 |
| 20260503172057 | 59 | 0 | 2.6 | 7.0 | 0.00 | 0.00 | 0.00 | 46 | 1020.0 |
| 20260503171555 | 59 | 337 | 0.9 | 8.7 | 0.00 | 0.00 | 0.00 | 50 | 1019.9 |
| 20260503171056 | 58 | 242 | 0.9 | 8.7 | 0.00 | 0.00 | 0.00 | 47 | 1020.2 |
| 20260503170557 | 58 | 309 | 3.5 | 8.7 | 0.00 | 0.00 | 0.00 | 44 | 1020.3 |
| 20260503150556 | 55 | 296 | 0.0 | 3.5 | 0.00 | 0.00 | 0.00 | 54 | 1021.3 |
| 20260503140108 | 49 | 0 | 0.9 | 6.1 | 0.00 | 0.00 | 0.00 | 65 | 1021.6 |
| 20260503131055 | 44 | 193 | 1.7 | 5.2 | 0.00 | 0.00 | 0.00 | 77 | 1021.5 |
| 20260503130558 | 43 | 273 | 0.9 | 5.2 | 0.00 | 0.00 | 0.00 | 78 | 1021.5 |